Location: Star Hoppers Observatory
(42.7905°N, 83.6127°W)
Time: 03:18:30
(UTC-04:00)

Daily predictions for brighter satellites

Satellite Brightness Start Highest point End
(mag) Time Altitude Azimuth Time Altitude Azimuth Time Altitude Azimuth
USA 215 4.4 04:07:04 10° NE 04:10:48 36° NNE 04:10:48 36° NNE
CZ-3 R/B 4.5 03:39:46 10° W 04:34:59 53° SSW 04:48:00 10° SE
CENTAUR R/B 4.4 04:37:24 22° N 04:37:24 22° N 04:41:29 10° NNE
Lacrosse 5 4.0 04:43:15 20° NNE 04:43:15 20° NNE 04:45:03 10° NE
CZ-4C R/B 3.2 04:40:23 53° N 04:41:47 61° NE 04:49:36 10° SE
USA 267 4.0 04:38:03 10° SE 04:42:04 42° SE 04:42:04 42° SE
Cosmos 1943 Rocket 3.2 04:47:54 40° NE 04:47:54 40° NE 04:51:34 10° NNE
ADEOS II 3.1 04:48:26 10° NNE 04:52:27 44° ENE 04:52:27 44° ENE
Okean O Rocket 3.3 05:02:42 10° NE 05:06:35 30° E 05:07:32 27° ESE
Cosmos 1898 Rocket 4.3 05:09:50 43° NNE 05:09:50 43° NNE 05:13:19 10° NNE
Cosmos 1937 Rocket 3.9 05:10:36 61° ENE 05:10:36 61° ENE 05:15:20 10° NNE
Cosmos 489 Rocket 4.3 05:14:20 86° N 05:14:20 86° N 05:20:28 10° NNE
Cosmos 2369 Rocket 3.2 05:28:59 32° NNW 05:28:59 32° NNW 05:32:36 10° NNE
Meteor 2-19 Rocket 4.3 05:23:50 10° N 05:30:02 87° W 05:36:12 10° S
Cosmos 990 Rocket 3.8 05:32:36 87° NW 05:32:36 87° NW 05:37:46 10° NNE
Cosmos 1610 Rocket 4.3 05:31:22 10° N 05:37:33 78° W 05:43:39 10° S
MOS 1-B 4.2 05:32:13 10° N 05:37:59 73° WNW 05:39:02 59° SW
Cosmos 2327 Rocket 4.5 05:33:51 10° NNW 05:40:04 59° W 05:46:18 10° S
Meteor 1-31 Rocket 4.4 05:37:27 10° NNE 05:40:55 32° E 05:44:21 10° SSE
Cosmos 2298 Rocket 3.9 05:40:54 69° WNW 05:40:55 69° WNW 05:46:16 10° NNE
Cosmos 1340 Rocket 3.9 05:42:35 36° N 05:42:35 36° N 05:45:04 10° N
Milstar 3 4.0 05:43:13 23° SSW 05:44:34 24° S 05:50:20 10° SE
Cosmos 1833 4.2 05:50:59 54° WSW 05:50:59 54° WSW 05:56:24 10° S
Cosmos 1707 2.7 05:51:04 76° SSE 05:51:18 81° E 05:55:15 10° N
Cosmos 2219 3.8 05:48:35 10° NNW 05:54:12 56° ENE 05:59:43 10° SE
Cosmos 962 Rocket 4.5 05:48:11 10° N 05:54:22 81° E 06:00:29 10° S
USA 215 4.4 05:50:15 10° NE 05:55:43 30° NNW 05:58:09 23° NW
APEX 3.2 05:57:23 71° SSW 05:57:23 71° SSW 06:01:39 10° SSE
Meteor 2-5 Rocket 4.1 05:54:50 10° S 06:00:41 68° E 06:06:29 10° NNE
Cosmos 1378 3.0 06:01:44 77° WSW 06:01:54 79° W 06:05:41 10° N
PAYLOAD B 4.1 06:00:01 10° N 06:05:32 76° WNW 06:11:01 10° SSW
Cosmos 2297 Rocket 4.3 06:01:20 10° N 06:05:55 24° NE 06:10:26 10° ESE
Cosmos 2341 Rocket 4.0 05:59:51 10° N 06:06:17 84° W 06:12:40 10° S
Cosmos 158 Rocket 4.4 06:01:20 10° NNW 06:06:43 67° ENE 06:12:05 10° SSE
GPS 2-04 Rocket1 4.3 06:07:14 20° S 06:07:14 20° S 06:09:41 10° SE
Cosmos 2181 Rocket 4.0 06:03:53 10° S 06:10:08 83° E 06:16:20 10° N
Cosmos 1953 Rocket 3.5 06:09:03 33° SW 06:10:46 60° W 06:15:03 10° N
Cosmos 1825 Rocket 3.9 06:12:15 41° WNW 06:12:15 41° WNW 06:16:14 10° N
Cosmos 1656 Rocket 3.7 06:09:34 27° SW 06:12:36 61° WNW 06:18:14 10° NNE
USA 81 4.4 06:07:37 10° S 06:12:50 66° E 06:18:04 10° N
CZ-4B DEB 4.1 06:07:45 10° N 06:13:12 68° WNW 06:18:40 10° SSW
SJ 16-02 2.3 06:09:33 10° S 06:13:48 49° ESE 06:18:03 10° NNE
EO 1 Del DPAF 4.4 06:10:25 10° SE 06:14:04 44° ENE 06:17:45 10° N
OAO 2 Rocket 4.4 06:12:44 27° SW 06:14:11 32° S 06:18:34 10° SE
NOSS 3-1 (C) 3.3 06:10:26 18° SSW 06:14:54 88° ESE 06:21:23 10° NE
USA 229 DEB 3.9 06:13:07 29° WSW 06:16:25 52° NW 06:23:13 10° NNE
USA 229 3.9 06:13:10 29° WSW 06:16:30 53° NW 06:23:18 10° NNE
PSLV R/B 4.2 06:12:41 10° N 06:16:11 34° WNW 06:16:11 34° WNW
Cosmos 1809 Rocket 4.3 06:10:51 10° N 06:17:00 82° W 06:23:08 10° S
Meteor 1-16 Rocket 4.2 06:13:36 10° NNW 06:19:16 81° W 06:25:05 10° S
NOSS 3-1 (A) 3.6 06:14:46 10° SSW 06:20:27 71° ESE 06:26:53 10° NE
CZ-4B R/B 4.0 06:19:08 10° N 06:23:35 80° WNW 06:28:05 10° SSW
Lacrosse 5 3.7 06:22:28 14° NW 06:24:27 18° N 06:27:52 10° NNE
Cosmos 1295 Rocket 4.4 06:20:17 10° NNW 06:26:31 67° W 06:32:46 10° S
USA 267 4.3 06:23:14 10° S 06:28:10 23° WSW 06:29:28 21° WSW
CZ-4B R/B 3.3 06:23:27 10° N 06:28:45 55° WNW 06:34:08 10° SSW
Landsat 4 3.7 06:25:59 10° S 06:29:43 59° WSW 06:33:27 10° NNW
Cosmos 1356 Rocket 3.4 06:25:46 10° SSW 06:29:59 62° WNW 06:34:17 10° N
CZ-4C R/B 3.5 06:25:41 19° WNW 06:30:14 35° WSW 06:37:16 10° S
Cosmos 1943 Rocket 3.4 06:29:28 21° WNW 06:30:16 22° NW 06:34:33 10° N
ADEOS II 3.2 06:28:59 10° NNW 06:32:56 22° WNW 06:33:24 22° WNW
Tiangong 2 2.2 06:32:51 28° SW 06:33:23 30° SSW 06:36:15 10° SE
Cosmos 1269 Rocket 4.1 06:29:28 10° NNW 06:34:48 83° ENE 06:40:07 10° SSE
Cosmos 1356 3.7 06:33:24 10° S 06:36:51 71° E 06:40:21 10° NNE
USA 116 3.5 06:34:40 10° S 06:38:08 60° W 06:42:06 10° NNW
Meteor 2-21 Rocket 4.3 06:34:16 10° NNW 06:40:18 71° W 06:46:20 10° S
Meteor 1-28 Rocket 3.2 06:38:28 10° S 06:42:14 62° W 06:46:02 10° NNW
Okean O Rocket 2.6 06:39:11 10° N 06:42:51 26° WNW 06:44:59 18° WSW
Meteor PRIRODA 4.4 06:41:51 10° N 06:45:15 32° WNW 06:48:37 10° SW
IDEFIX/ARIANE 42P 3.7 06:40:38 10° NNE 06:45:43 48° E 06:50:44 10° S
Cosmos 372 Rocket 3.9 06:45:41 10° SSW 06:50:52 67° WNW 06:56:07 10° NNE
CZ-2C R/B 4.2 06:46:52 10° S 06:51:20 40° W 06:55:49 10° NNW
Shenzhou-11 Module 4.4 06:54:22 11° SW 06:54:58 11° SW 06:55:59 10° SSW
Okean-O 2.5 06:52:10 10° N 06:56:37 75° WNW 07:01:02 10° SSW
Cosmos-2242 3.8 06:54:21 10° NNW 06:58:02 28° W 07:01:42 10° SSW
PAYLOAD A 4.2 06:54:10 10° NNE 06:58:53 69° ESE 07:03:39 10° S
Cosmos 2366 rocket 3.9 06:54:06 10° NNW 07:00:12 68° W 07:06:19 10° S
Cosmos 1125 Rocket 3.7 06:55:57 10° SW 07:01:02 50° WNW 07:06:11 10° N
NOAA 6 4.0 06:57:01 10° N 07:02:12 73° WNW 07:07:19 10° SSW
Meteor 1-24 Rocket 3.9 06:59:23 10° SSW 07:05:19 58° WNW 07:11:10 10° N
ERBS 2.5 07:05:23 10° NW 07:08:45 53° SW 07:12:07 10° SSE
Cosmos 2227 Rocket 2.3 07:06:44 10° NNW 07:12:28 87° ENE 07:18:08 10° SSE
SL-8 Rocket 4.4 07:08:01 10° NNW 07:13:50 40° W 07:19:37 10° SSW
Cosmos 494 Rocket 4.2 07:08:57 10° NNW 07:14:09 76° ENE 07:19:21 10° SSE
COSMO-SKYMED 1 2.8 07:10:13 10° S 07:14:24 48° W 07:18:38 10° NNW
Meteor 1-31 Rocket 4.2 07:12:30 10° NNW 07:15:09 18° WNW 07:17:47 10° WSW
Cosmos 1674 2.6 07:12:55 10° S 07:16:39 84° W 07:20:24 10° N
Feng Yun 1-1 Rocket 4.4 07:11:50 10° N 07:17:15 53° WNW 07:22:48 10° SW
Cosmos 2251 Rocket 4.0 07:20:50 10° NNW 07:26:13 71° ENE 07:31:34 10° SSE
DEBRIS 4.0 07:25:38 10° W 07:32:30 35° NNW 07:35:14 10° ENE
